| time (UTC) | temp F | wind direction | speed MPH | gust MPH | rain 1hr in | rain 24hr in | rain mn in | humidity % | barometer mb |
| 20260503210606 | 68 | 0 | 2.0 | 12.0 | 0.00 | 0.00 | 0.00 | 10 | 1021.3 |
| 20260503200606 | 67 | 0 | 2.0 | 7.0 | 0.00 | 0.00 | 0.00 | 8 | 1022.2 |
| 20260503190606 | 70 | 0 | 3.0 | 7.0 | 0.00 | 0.00 | 0.00 | 8 | 1023.1 |
| 20260503190111 | 69 | 0 | 1.0 | 7.0 | 0.00 | 0.00 | 0.00 | 11 | 1023.2 |
| 20260503180606 | 67 | 0 | 2.0 | 9.0 | 0.00 | 0.00 | 0.00 | 11 | 1024.4 |
| 20260503180111 | 67 | 0 | 2.0 | 9.0 | 0.00 | 0.00 | 0.00 | 12 | 1024.4 |
| 20260503170605 | 64 | 0 | 1.0 | 8.0 | 0.00 | 0.00 | 0.00 | 15 | 1025.0 |
| 20260503160110 | 60 | 0 | 2.0 | 7.0 | 0.00 | 0.00 | 0.00 | 20 | 1025.4 |
| 20260503140111 | 48 | 0 | 1.0 | 6.0 | 0.00 | 0.00 | 0.00 | 30 | 1026.4 |
| 20260503130606 | 44 | 0 | 1.0 | 5.0 | 0.00 | 0.00 | 0.00 | 31 | 1026.4 |
| 20260503130110 | 43 | 0 | 1.0 | 3.0 | 0.00 | 0.00 | 0.00 | 31 | 1026.4 |
| 20260503120110 | 44 | 0 | 1.0 | 7.0 | 0.00 | 0.00 | 0.00 | 28 | 1026.0 |
| 20260503110606 | 42 | 0 | 1.0 | 3.0 | 0.00 | 0.00 | 0.00 | 29 | 1026.2 |
| 20260503110110 | 42 | 0 | 0.0 | 3.0 | 0.00 | 0.00 | 0.00 | 29 | 1026.2 |
| 20260503090110 | 40 | 0 | 0.0 | 1.0 | 0.00 | 0.00 | 0.00 | 29 | 1026.6 |
| 20260503080606 | 41 | 0 | 0.0 | 0.0 | 0.00 | 0.00 | 0.00 | 27 | 1026.7 |
| 20260503070605 | 41 | 0 | 0.0 | 1.0 | 0.00 | 0.00 | 0.00 | 25 | 1027.1 |
| 20260503070111 | 41 | 0 | 0.0 | 1.0 | 0.00 | 0.00 | 0.00 | 25 | 1027.0 |
| 20260503060113 | 39 | 0 | 0.0 | 0.0 | 0.00 | 0.00 | 0.00 | 26 | 1027.1 |
| 20260503050608 | 39 | 0 | 0.0 | 0.0 | 0.00 | 0.00 | 0.00 | 26 | 1027.1 |
| 20260503050112 | 39 | 0 | 0.0 | 0.0 | 0.00 | 0.00 | 0.00 | 27 | 1027.1 |
| 20260503040607 | 42 | 0 | 0.0 | 0.0 | 0.00 | 0.00 | 0.00 | 25 | 1027.1 |
| 20260503040112 | 42 | 0 | 0.0 | 0.0 | 0.00 | 0.00 | 0.00 | 24 | 1027.1 |
| 20260503030608 | 46 | 0 | 0.0 | 0.0 | 0.00 | 0.00 | 0.00 | 20 | 1026.3 |
| 20260503030113 | 46 | 0 | 0.0 | 0.0 | 0.00 | 0.00 | 0.00 | 20 | 1026.2 |
| 20260503020607 | 53 | 0 | 0.0 | 1.0 | 0.00 | 0.00 | 0.00 | 15 | 1025.3 |
| 20260503020114 | 54 | 0 | 0.0 | 1.0 | 0.00 | 0.00 | 0.00 | 15 | 1025.3 |
| 20260503010607 | 63 | 0 | 0.0 | 1.0 | 0.00 | 0.00 | 0.00 | 9 | 1025.1 |
| 20260503010113 | 63 | 0 | 0.0 | 2.0 | 0.00 | 0.00 | 0.00 | 9 | 1025.2 |
| 20260503000607 | 65 | 0 | 1.0 | 6.0 | 0.00 | 0.00 | 0.00 | 8 | 1025.9 |
| 20260502230607 | 65 | 0 | 0.0 | 10.0 | 0.00 | 0.00 | 0.00 | 9 | 1026.1 |
| 20260502230112 | 65 | 0 | 3.0 | 10.0 | 0.00 | 0.00 | 0.00 | 9 | 1026.2 |
| 20260502220607 | 64 | 0 | 1.0 | 5.0 | 0.00 | 0.00 | 0.00 | 10 | 1026.9 |
| 20260502220112 | 64 | 0 | 0.0 | 5.0 | 0.00 | 0.00 | 0.00 | 8 | 1026.9 |